Regional Weather Roundup
Issued by NWS Green Bay, WI

Home | Current Version | Previous Version | Text Only | Print | Product List | Glossary On
Versions: 1 2 3 4 5 6 7 8 9 10 11 12 13 14 15 16 17 18 19 20 21 22 23 24 25 26 27 28 29 30 31 32 33 34 35 36 37 38 39 40 41 42 43 44 45 46 47 48 49 50
800
ASUS43 KGRB 131611
RWRGRB

NORTH-CENTRAL AND NORTHEAST WISCONSIN REGIONAL WEATHER ROUNDUP
NATIONAL WEATHER SERVICE GREEN BAY WI
1000 AM CST WED DEC 13 2017

WIZ005-009-010>012-018-019-131700-
NORTH CENTRAL WISCONSIN

CITY           SKY/WX    TMP DP  RH WIND       PRES   REMARKS
IRONWOOD       NOT AVBL
MANITOWISH WTR LGT SNOW  11   9  89 E9        29.46S VSB 3/4 WCI  -2
ARBOR VITAE    LGT SNOW  14  10  85 E7        29.46R VSB 3/4 WCI   4
EAGLE RIVER    SNOW      11   7  83 E7        29.46R VSB 1/2 WCI   1
LAND O LAKES   SNOW      12   8  85 E7        29.50S VSB 1/2 WCI   1
RHINELANDER    SNOW      13  10  88 E9        29.44S VSB 1/4 WCI   1
PHILLIPS       LGT SNOW  12   9  88 E7        29.43S VSB 3/4 WCI   2
ANTIGO         LGT SNOW  15  12  88 E12       29.41S VSB 3/4 WCI   1
TOMAHAWK       SNOW      12   9  87 NE3       29.45R VSB 1/4
MERRILL        LGT SNOW  14  11  88 E7        29.43S VSB 3/4 WCI   4
$$

WIZ013-073-131700-
NORTHEAST WISCONSIN

CITY           SKY/WX    TMP DP  RH WIND       PRES   REMARKS
IRON MOUNTAIN  HVY SNOW  14   9  80 NE7       29.52F VSB 1/4 WCI   4
MARINETTE      LGT SNOW  25  23  92 E17       29.51F VSB 1
OCONTO         CLOUDY    26  24  93 E12G17    29.47F VSB 1/2
$$

WIZ017-030-035>037-045-131700-
CENTRAL WISCONSIN

CITY           SKY/WX    TMP DP  RH WIND       PRES   REMARKS
MEDFORD        LGT SNOW  14  11  86 NE10      29.40R VSB 3/4 WCI   2
WAUSAU         CLOUDY    16  12  84 E7        29.40R WCI   6
MOSINEE        CLOUDY    18  16  93 E13       29.40S FOG     WCI   4
MARSHFIELD     CLOUDY    18  14  84 E10       29.38R WCI   6
WISC RAPIDS    CLOUDY    18  14  84 E12G17    29.37F WCI   5
STEVENS POINT  CLOUDY    17  16  94 NE8       29.39F WCI   7
WAUPACA        CLOUDY    23  19  83 NE3       29.41F
SHAWANO        LGT SNOW  22  19  88 NE8       29.44F
CLINTONVILLE   NOT AVBL
WAUTOMA        CLOUDY    21  17  84 NE10      29.38F WCI  10
$$

WIZ038-039-048-051-131700-
FOX VALLEY

CITY           SKY/WX    TMP DP  RH WIND       PRES   REMARKS
NWS GREEN BAY  LGT SNOW  27  24  89 E8        29.44F FOG
APPLETON       PTSUNNY   25  19  80 E8        29.40F
OSHKOSH        CLOUDY    24  19  81 SE12      29.38F
FOND DU LAC    CLOUDY    25  17  72 E9        29.40F
$$

WIZ022-050-052-131700-
EAST CENTRAL WISCONSIN

CITY           SKY/WX    TMP DP  RH WIND       PRES   REMARKS
EPHRAIM        SNOW      23  21  91 SE14      29.52F VSB 1/2
WASHINGTON ISL LGT SNOW  23  20  89 SE10G20   29.57F VSB 3/4
STURGEON BAY   SNOW      26  24  92 E15       29.50F VSB 1/2
MANITOWOC      MIX PCPN  31  28  89 SE15G23   29.45F
SHEBOYGAN      CLOUDY    31  26  82 SE10      29.42F
$$

LMZ563-521-522-541>543-131700-
LAKESHORE

STATION/POSITION TIME  TEMP    WIND        PRES    VSBY  WAVE
                       AIR SEA DIR/SP/G                  HT/PER
                 (UTC) (F)     (DEG/KT/KT) (MB)    (MI)  (FT/S)
SHEBOYGAN LKSHOR 1600   33     150/ 22/ 26  997.1F
KEWAUNEE LKSHORE 1548   28     110/ 21/ 26  998.0F
NORTHPORT PIER   1544   25     120/ 20/ 25 1001.4F
MENOMINEE LKSHOR 1548   26      70/ 17/ 22  999.4F
$$




USA.gov is the U.S. government's official web portal to all federal, state and local government web resources and services.